Time,TemperatureF,DewpointF,PressureIn,WindDirection,WindDirectionDegrees,WindSpeedMPH,WindSpeedGustMPH,Humidity,HourlyPrecipIn,Conditions,Clouds,dailyrainin,SolarRadiationWatts/m^2,SoftwareType,DateUTC
2013-01-22 00:00:00,60.5,52.2,30.09,NW,314,4.0,4.0,74,0.00,CLR,,0.00,0.0,WeatherDisplay:10.37,2013-01-22 05:00:00,
2013-01-22 00:05:00,60.5,51.8,30.09,NNW,328,3.4,3.4,73,0.00,CLR,,0.00,0.0,WeatherDisplay:10.37,2013-01-22 05:05:00,
2013-01-22 00:19:00,60.2,51.1,30.09,NNW,346,3.4,4.6,72,0.00,CLR,,0.00,0.0,WeatherDisplay:10.37,2013-01-22 05:19:00,
2013-01-22 00:27:00,60.0,51.3,30.09,North,349,4.6,4.6,73,0.00,CLR,,0.00,0.0,WeatherDisplay:10.37,2013-01-22 05:27:00,
2013-01-22 00:33:00,60.1,51.8,30.09,NNE,12,5.8,5.8,74,0.00,CLR,,0.00,0.0,WeatherDisplay:10.37,2013-01-22 05:33:00,
2013-01-22 00:47:00,60.1,52.1,30.09,NW,318,3.4,3.4,75,0.00,CLR,,0.00,0.0,WeatherDisplay:10.37,2013-01-22 05:47:00,
2013-01-22 00:52:00,60.1,52.1,30.08,North,349,4.6,4.6,75,0.00,CLR,,0.00,0.0,WeatherDisplay:10.37,2013-01-22 05:52:00,
2013-01-22 00:57:00,60.1,52.5,30.08,North,355,5.8,5.8,76,0.00,CLR,,0.00,0.0,WeatherDisplay:10.37,2013-01-22 05:57:00,
2013-01-22 01:00:00,59.9,52.7,30.09,NNW,333,3.4,3.4,77,0.00,CLR,,0.00,0.0,WeatherDisplay:10.37,2013-01-22 06:00:00,
2013-01-22 01:02:00,60.0,52.4,30.09,NNE,19,4.6,4.6,76,0.00,CLR,,0.00,0.0,WeatherDisplay:10.37,2013-01-22 06:02:00,
2013-01-22 01:07:00,59.9,52.7,30.09,NNW,337,3.4,3.4,77,0.00,CLR,,0.00,0.0,WeatherDisplay:10.37,2013-01-22 06:07:00,
2013-01-22 01:16:00,59.8,52.9,30.09,NNE,12,3.4,3.4,78,0.00,CLR,,0.00,0.0,WeatherDisplay:10.37,2013-01-22 06:16:00,
2013-01-22 01:36:00,60.1,52.9,30.09,NNW,342,6.9,6.9,77,0.00,CLR,,0.00,0.0,WeatherDisplay:10.37,2013-01-22 06:36:00,
2013-01-22 01:43:00,60.1,53.2,30.08,NNE,12,6.9,6.9,78,0.00,CLR,,0.00,0.0,WeatherDisplay:10.37,2013-01-22 06:43:00,
2013-01-22 01:52:00,60.1,53.2,30.07,North,5,6.0,6.0,78,0.00,CLR,,0.00,0.0,WeatherDisplay:10.37,2013-01-22 06:52:00,
2013-01-22 01:57:00,60.0,52.8,30.08,NNE,30,6.9,6.9,77,0.00,CLR,,0.00,0.0,WeatherDisplay:10.37,2013-01-22 06:57:00,
2013-01-22 02:00:00,60.0,52.4,30.07,NNW,346,3.4,3.4,76,0.00,CLR,,0.00,0.0,WeatherDisplay:10.37,2013-01-22 07:00:00,
2013-01-22 02:02:00,59.9,52.7,30.08,NNE,17,5.8,5.8,77,0.00,CLR,,0.00,0.0,WeatherDisplay:10.37,2013-01-22 07:02:00,
2013-01-22 02:07:00,60.0,52.4,30.08,North,360,4.6,4.6,76,0.00,CLR,,0.00,0.0,WeatherDisplay:10.37,2013-01-22 07:07:00,
2013-01-22 02:13:00,59.9,52.0,30.07,North,10,3.4,3.4,75,0.00,CLR,,0.00,0.0,WeatherDisplay:10.37,2013-01-22 07:13:00,
2013-01-22 02:40:00,59.9,50.5,30.08,NNE,26,8.1,8.1,71,0.00,CLR,,0.00,0.0,WeatherDisplay:10.37,2013-01-22 07:40:00,
2013-01-22 02:47:00,59.8,50.0,30.07,NE,53,4.6,4.6,70,0.00,CLR,,0.00,0.0,WeatherDisplay:10.37,2013-01-22 07:47:00,
2013-01-22 02:52:00,59.7,49.5,30.08,NE,46,3.4,3.4,69,0.00,CLR,,0.00,0.0,WeatherDisplay:10.37,2013-01-22 07:52:00,
2013-01-22 02:57:00,59.6,49.0,30.08,NNE,28,5.8,5.8,68,0.00,CLR,,0.00,0.0,WeatherDisplay:10.37,2013-01-22 07:57:00,
2013-01-22 03:00:00,59.6,47.8,30.08,NNE,19,5.0,5.0,65,0.00,CLR,,0.00,0.0,WeatherDisplay:10.37,2013-01-22 08:00:00,
2013-01-22 03:02:00,59.6,48.2,30.08,NNE,18,4.6,4.6,66,0.00,CLR,,0.00,0.0,WeatherDisplay:10.37,2013-01-22 08:02:00,
2013-01-22 03:07:00,59.6,48.2,30.08,NNE,30,3.4,3.4,66,0.00,CLR,,0.00,0.0,WeatherDisplay:10.37,2013-01-22 08:07:00,
2013-01-22 03:14:00,59.5,47.3,30.08,ENE,62,4.6,4.6,64,0.00,CLR,,0.00,0.0,WeatherDisplay:10.37,2013-01-22 08:14:00,
2013-01-22 03:46:00,58.9,46.3,30.07,NNE,15,2.3,2.3,63,0.00,CLR,,0.00,0.0,WeatherDisplay:10.37,2013-01-22 08:46:00,
2013-01-22 03:55:00,58.8,45.8,30.07,North,9,5.8,5.8,62,0.00,CLR,,0.00,0.0,WeatherDisplay:10.37,2013-01-22 08:55:00,
2013-01-22 04:00:00,58.9,45.5,30.08,NE,49,5.8,5.8,61,0.00,CLR,,0.00,0.0,WeatherDisplay:10.37,2013-01-22 09:00:00,
2013-01-22 04:05:00,58.8,45.4,30.07,NW,320,5.8,5.8,61,0.00,CLR,,0.00,0.0,WeatherDisplay:10.37,2013-01-22 09:05:00,
2013-01-22 04:15:00,58.7,45.3,30.08,NE,44,4.6,4.6,61,0.00,CLR,,0.00,0.0,WeatherDisplay:10.37,2013-01-22 09:15:00,
2013-01-22 04:26:00,58.6,44.8,30.08,North,5,5.0,5.0,60,0.00,CLR,,0.00,0.0,WeatherDisplay:10.37,2013-01-22 09:26:00,
2013-01-22 04:36:00,58.3,44.9,30.08,North,5,4.6,4.6,61,0.00,CLR,,0.00,0.0,WeatherDisplay:10.37,2013-01-22 09:36:00,
2013-01-22 04:43:00,58.0,45.0,30.08,North,11,3.4,3.4,62,0.00,CLR,,0.00,0.0,WeatherDisplay:10.37,2013-01-22 09:43:00,
2013-01-22 04:52:00,57.7,45.2,30.08,North,10,3.4,3.4,63,0.00,CLR,,0.00,0.0,WeatherDisplay:10.37,2013-01-22 09:52:00,
2013-01-22 04:58:00,57.6,45.1,30.08,North,10,4.6,4.6,63,0.00,CLR,,0.00,0.0,WeatherDisplay:10.37,2013-01-22 09:58:00,
2013-01-22 05:00:00,57.3,44.8,30.09,North,355,5.8,5.8,63,0.00,CLR,,0.00,0.0,WeatherDisplay:10.37,2013-01-22 10:00:00,
2013-01-22 05:03:00,57.5,45.0,30.09,North,10,5.8,5.8,63,0.00,CLR,,0.00,0.0,WeatherDisplay:10.37,2013-01-22 10:03:00,
2013-01-22 05:08:00,57.4,44.9,30.09,NNE,12,4.6,4.6,63,0.00,CLR,,0.00,0.0,WeatherDisplay:10.37,2013-01-22 10:08:00,
2013-01-22 05:15:00,57.3,44.8,30.09,NNW,346,3.4,3.4,63,0.00,CLR,,0.00,0.0,WeatherDisplay:10.37,2013-01-22 10:15:00,
2013-01-22 05:20:00,57.1,45.0,30.09,NNW,328,3.4,3.4,64,0.00,CLR,,0.00,0.0,WeatherDisplay:10.37,2013-01-22 10:20:00,
2013-01-22 05:26:00,57.1,45.0,30.10,North,360,3.4,3.4,64,0.00,CLR,,0.00,0.0,WeatherDisplay:10.37,2013-01-22 10:26:00,
2013-01-22 05:34:00,57.0,44.9,30.09,North,360,4.6,4.6,64,0.00,CLR,,0.00,0.0,WeatherDisplay:10.37,2013-01-22 10:34:00,
2013-01-22 05:48:00,56.8,44.7,30.10,North,360,1.1,1.1,64,0.00,CLR,,0.00,0.0,WeatherDisplay:10.37,2013-01-22 10:48:00,
2013-01-22 05:55:00,56.6,44.6,30.10,North,360,3.4,3.4,64,0.00,CLR,,0.00,0.0,WeatherDisplay:10.37,2013-01-22 10:55:00,
2013-01-22 06:00:00,56.4,44.8,30.10,North,360,3.4,3.4,65,0.00,CLR,,0.00,0.0,WeatherDisplay:10.37,2013-01-22 11:00:00,
2013-01-22 06:05:00,56.4,44.8,30.10,North,360,4.6,4.6,65,0.00,CLR,,0.00,0.0,WeatherDisplay:10.37,2013-01-22 11:05:00,
2013-01-22 06:10:00,56.3,44.7,30.10,North,360,3.4,3.4,65,0.00,CLR,,0.00,0.0,WeatherDisplay:10.37,2013-01-22 11:10:00,
2013-01-22 06:22:00,56.4,44.4,30.11,North,5,3.4,3.4,64,0.00,CLR,,0.00,0.0,WeatherDisplay:10.37,2013-01-22 11:22:00,
2013-01-22 06:55:00,56.2,44.2,30.13,North,5,3.4,3.4,64,0.00,CLR,,0.00,0.0,WeatherDisplay:10.37,2013-01-22 11:55:00,
2013-01-22 07:00:00,56.0,44.4,30.13,North,5,4.6,4.6,65,0.00,OVC,,0.00,0.0,WeatherDisplay:10.37,2013-01-22 12:00:00,
2013-01-22 07:05:00,56.0,44.0,30.13,North,9,7.0,7.0,64,0.00,OVC,,0.00,0.0,WeatherDisplay:10.37,2013-01-22 12:05:00,
2013-01-22 07:18:00,55.9,43.9,30.14,NNE,19,8.1,8.1,64,0.00,OVC,,0.00,0.0,WeatherDisplay:10.37,2013-01-22 12:18:00,
2013-01-22 07:29:00,55.9,43.9,30.15,NNE,33,5.8,5.8,64,0.00,OVC,,0.00,5.0,WeatherDisplay:10.37,2013-01-22 12:29:00,
2013-01-22 07:35:00,55.7,44.1,30.16,NNE,30,4.6,4.6,65,0.00,OVC,,0.00,9.0,WeatherDisplay:10.37,2013-01-22 12:35:00,
2013-01-22 07:54:00,55.5,43.1,30.17,North,355,11.5,11.5,63,0.00,OVC,,0.00,28.0,WeatherDisplay:10.37,2013-01-22 12:54:00,
2013-01-22 07:59:00,55.6,43.2,30.17,NE,35,10.3,10.3,63,0.00,OVC,,0.00,39.0,WeatherDisplay:10.37,2013-01-22 12:59:00,
2013-01-22 08:00:00,55.6,43.2,30.17,NNE,28,9.2,9.2,63,0.00,OVC,,0.00,49.0,WeatherDisplay:10.37,2013-01-22 13:00:00,
2013-01-22 08:04:00,55.6,43.2,30.17,NNW,347,9.2,9.2,63,0.00,OVC,,0.00,49.0,WeatherDisplay:10.37,2013-01-22 13:04:00,
2013-01-22 08:09:00,55.6,43.2,30.17,NNE,28,10.0,10.0,63,0.00,OVC,,0.00,49.0,WeatherDisplay:10.37,2013-01-22 13:09:00,
2013-01-22 08:15:00,55.6,42.8,30.18,NNE,26,9.2,9.2,62,0.00,OVC,,0.00,47.0,WeatherDisplay:10.37,2013-01-22 13:15:00,
2013-01-22 08:36:00,55.5,42.7,30.18,North,360,6.9,6.9,62,0.00,OVC,,0.00,121.0,WeatherDisplay:10.37,2013-01-22 13:36:00,
2013-01-22 08:55:00,55.7,41.1,30.20,NNE,31,8.1,8.8,58,0.00,OVC,,0.00,120.0,WeatherDisplay:10.37,2013-01-22 13:55:00,
2013-01-22 09:00:00,55.7,41.1,30.20,NE,37,11.5,11.5,58,0.00,OVC,,0.00,135.0,WeatherDisplay:10.37,2013-01-22 14:00:00,
2013-01-22 09:05:00,55.8,40.8,30.21,NNE,15,11.5,11.5,57,0.00,OVC,,0.00,174.0,WeatherDisplay:10.37,2013-01-22 14:05:00,
2013-01-22 09:10:00,55.9,40.4,30.21,NNE,22,11.5,11.5,56,0.00,OVC,,0.00,158.0,WeatherDisplay:10.37,2013-01-22 14:10:00,
2013-01-22 09:19:00,56.0,41.0,30.21,North,355,10.3,10.3,57,0.00,OVC,,0.00,185.0,WeatherDisplay:10.37,2013-01-22 14:19:00,
2013-01-22 09:29:00,56.3,40.8,30.21,NNE,30,9.0,9.0,56,0.00,OVC,,0.00,209.0,WeatherDisplay:10.37,2013-01-22 14:29:00,
2013-01-22 09:49:00,56.9,41.4,30.23,NE,51,9.2,9.2,56,0.00,BKN,,0.00,332.0,WeatherDisplay:10.37,2013-01-22 14:49:00,
2013-01-22 09:56:00,57.2,41.2,30.23,NNE,22,8.0,8.0,55,0.00,OVC,,0.00,322.0,WeatherDisplay:10.37,2013-01-22 14:56:00,
2013-01-22 10:00:00,57.6,40.6,30.23,NNE,14,11.5,11.5,53,0.00,OVC,,0.00,381.0,WeatherDisplay:10.37,2013-01-22 15:00:00,
2013-01-22 10:01:00,57.5,40.5,30.23,NE,39,11.5,11.5,53,0.00,OVC,,0.00,271.0,WeatherDisplay:10.37,2013-01-22 15:01:00,
2013-01-22 10:06:00,57.4,40.4,30.23,North,5,11.5,11.5,53,0.00,OVC,,0.00,244.0,WeatherDisplay:10.37,2013-01-22 15:06:00,
2013-01-22 10:40:00,60.2,41.5,30.23,NNE,17,8.1,8.1,50,0.00,BKN,,0.00,454.0,WeatherDisplay:10.37,2013-01-22 15:40:00,
2013-01-22 10:56:00,61.1,41.2,30.23,NE,52,6.9,6.9,48,0.00,OVC,,0.00,355.0,WeatherDisplay:10.37,2013-01-22 15:56:00,
2013-01-22 11:00:00,61.3,40.3,30.23,NE,36,8.1,8.1,46,0.00,OVC,,0.00,373.0,WeatherDisplay:10.37,2013-01-22 16:00:00,
2013-01-22 11:01:00,61.1,40.1,30.23,NE,47,9.2,9.2,46,0.00,OVC,,0.00,378.0,WeatherDisplay:10.37,2013-01-22 16:01:00,
2013-01-22 11:06:00,61.3,40.9,30.23,NE,40,10.3,10.3,47,0.00,OVC,,0.00,311.0,WeatherDisplay:10.37,2013-01-22 16:06:00,
2013-01-22 11:29:00,61.9,40.9,30.23,North,360,9.2,9.2,46,0.00,OVC,,0.00,383.0,WeatherDisplay:10.37,2013-01-22 16:29:00,
2013-01-22 11:35:00,62.3,41.2,30.22,NE,45,6.9,6.9,46,0.00,OVC,,0.00,364.0,WeatherDisplay:10.37,2013-01-22 16:35:00,
2013-01-22 11:47:00,62.8,40.0,30.22,NNE,33,10.3,10.3,43,0.00,OVC,,0.00,362.0,WeatherDisplay:10.37,2013-01-22 16:47:00,
2013-01-22 11:56:00,63.4,38.6,30.21,NNW,340,10.3,10.3,40,0.00,FEW,,0.00,863.0,WeatherDisplay:10.37,2013-01-22 16:56:00,
2013-01-22 12:00:00,63.4,39.3,30.21,NE,37,9.2,9.2,41,0.00,BKN,,0.00,432.0,WeatherDisplay:10.37,2013-01-22 17:00:00,
2013-01-22 12:01:00,63.9,39.7,30.22,North,5,6.9,6.9,41,0.00,BKN,,0.00,541.0,WeatherDisplay:10.37,2013-01-22 17:01:00,
2013-01-22 12:06:00,63.9,39.7,30.21,NNE,18,10.3,10.3,41,0.00,OVC,,0.00,374.0,WeatherDisplay:10.37,2013-01-22 17:06:00,
2013-01-22 12:13:00,63.5,38.1,30.22,North,360,10.3,10.3,39,0.00,BKN,,0.00,415.0,WeatherDisplay:10.37,2013-01-22 17:13:00,
2013-01-22 12:21:00,63.6,38.2,30.21,NE,56,6.9,6.9,39,0.00,BKN,,0.00,482.0,WeatherDisplay:10.37,2013-01-22 17:21:00,
2013-01-22 12:47:00,65.0,37.4,30.21,NNW,336,6.9,6.9,36,0.00,BKN,,0.00,422.0,WeatherDisplay:10.37,2013-01-22 17:47:00,
2013-01-22 12:56:00,64.5,36.2,30.20,NNE,15,8.1,8.1,35,0.00,OVC,,0.00,408.0,WeatherDisplay:10.37,2013-01-22 17:56:00,
2013-01-22 13:00:00,64.3,36.8,30.20,NE,35,9.2,9.2,36,0.00,OVC,,0.00,338.0,WeatherDisplay:10.37,2013-01-22 18:00:00,
2013-01-22 13:01:00,64.6,37.0,30.20,NNE,15,10.3,10.3,36,0.00,OVC,,0.00,406.0,WeatherDisplay:10.37,2013-01-22 18:01:00,
2013-01-22 13:06:00,64.3,36.8,30.20,NE,42,9.2,9.2,36,0.00,OVC,,0.00,399.0,WeatherDisplay:10.37,2013-01-22 18:06:00,
2013-01-22 13:49:00,64.6,37.0,30.18,North,5,4.6,4.6,36,0.00,OVC,,0.00,316.0,WeatherDisplay:10.37,2013-01-22 18:49:00,
2013-01-22 13:57:00,64.3,36.0,30.18,NNE,15,8.0,8.0,35,0.00,OVC,,0.00,320.0,WeatherDisplay:10.37,2013-01-22 18:57:00,
2013-01-22 14:00:00,64.6,35.6,30.18,ENE,61,9.2,9.2,34,0.00,BKN,,0.00,383.0,WeatherDisplay:10.37,2013-01-22 19:00:00,
2013-01-22 14:02:00,64.6,36.3,30.18,NNE,32,10.3,10.3,35,0.00,BKN,,0.00,399.0,WeatherDisplay:10.37,2013-01-22 19:02:00,
2013-01-22 14:07:00,64.7,35.7,30.18,NNE,19,10.0,10.0,34,0.00,BKN,,0.00,388.0,WeatherDisplay:10.37,2013-01-22 19:07:00,
2013-01-22 14:19:00,64.5,34.7,30.18,NNE,20,6.9,6.9,33,0.00,BKN,,0.00,339.0,WeatherDisplay:10.37,2013-01-22 19:19:00,
2013-01-22 14:37:00,64.6,34.8,30.18,NNE,21,10.3,10.3,33,0.00,BKN,,0.00,350.0,WeatherDisplay:10.37,2013-01-22 19:37:00,
2013-01-22 14:56:00,64.6,34.8,30.18,NW,326,9.2,9.2,33,0.00,BKN,,0.00,371.0,WeatherDisplay:10.37,2013-01-22 19:56:00,
2013-01-22 15:00:00,64.6,34.1,30.18,NNE,25,6.0,6.0,32,0.00,OVC,,0.00,253.0,WeatherDisplay:10.37,2013-01-22 20:00:00,
2013-01-22 15:01:00,64.4,34.6,30.18,NW,315,10.3,10.3,33,0.00,BKN,,0.00,323.0,WeatherDisplay:10.37,2013-01-22 20:01:00,
2013-01-22 15:06:00,64.4,34.6,30.18,ENE,65,9.2,9.2,33,0.00,BKN,,0.00,272.0,WeatherDisplay:10.37,2013-01-22 20:06:00,
2013-01-22 15:17:00,64.6,34.1,30.19,NNE,30,8.1,8.1,32,0.00,BKN,,0.00,292.0,WeatherDisplay:10.37,2013-01-22 20:17:00,
2013-01-22 15:25:00,64.5,34.7,30.19,NNE,15,7.0,7.0,33,0.00,BKN,,0.00,281.0,WeatherDisplay:10.37,2013-01-22 20:25:00,
2013-01-22 15:30:00,64.3,33.8,30.19,North,5,9.2,9.2,32,0.00,BKN,,0.00,243.0,WeatherDisplay:10.37,2013-01-22 20:30:00,
2013-01-22 15:56:00,64.0,33.5,30.19,NNE,30,11.5,11.5,32,0.00,BKN,,0.00,193.0,WeatherDisplay:10.37,2013-01-22 20:56:00,
2013-01-22 16:00:00,63.4,42.2,30.19,NW,311,5.8,5.8,46,0.00,BKN,,0.00,176.0,WeatherDisplay:10.37,2013-01-22 21:00:00,
2013-01-22 16:01:00,64.0,35.0,30.19,NE,38,4.0,4.0,34,0.00,BKN,,0.00,195.0,WeatherDisplay:10.37,2013-01-22 21:01:00,
2013-01-22 16:06:00,64.1,36.6,30.19,NNW,339,5.8,5.8,36,0.00,BKN,,0.00,193.0,WeatherDisplay:10.37,2013-01-22 21:06:00,
2013-01-22 16:40:00,63.3,33.7,30.20,NE,49,10.3,10.3,33,0.00,BKN,,0.00,134.0,WeatherDisplay:10.37,2013-01-22 21:40:00,
2013-01-22 16:56:00,63.0,34.2,30.21,ENE,60,4.6,4.6,34,0.00,SCT,,0.00,167.0,WeatherDisplay:10.37,2013-01-22 21:56:00,
2013-01-22 17:00:00,62.8,34.0,30.21,North,5,5.8,5.8,34,0.00,BKN,,0.00,91.0,WeatherDisplay:10.37,2013-01-22 22:00:00,
2013-01-22 17:01:00,63.1,33.5,30.21,NNE,24,6.9,6.9,33,0.00,FEW,,0.00,174.0,WeatherDisplay:10.37,2013-01-22 22:01:00,
2013-01-22 17:06:00,63.0,34.2,30.21,NE,44,6.9,6.9,34,0.00,BKN,,0.00,97.0,WeatherDisplay:10.37,2013-01-22 22:06:00,
2013-01-22 17:18:00,62.3,34.3,30.21,NE,38,3.4,4.2,35,0.00,BKN,,0.00,77.0,WeatherDisplay:10.37,2013-01-22 22:18:00,
2013-01-22 17:56:00,60.4,33.3,30.22,NE,40,4.0,4.0,36,0.00,OVC,,0.00,7.0,WeatherDisplay:10.37,2013-01-22 22:56:00,
2013-01-22 18:00:00,59.4,33.8,30.23,NE,44,3.4,3.4,38,0.00,OVC,,0.00,0.0,WeatherDisplay:10.37,2013-01-22 23:00:00,
2013-01-22 18:01:00,60.0,32.9,30.22,NE,44,3.4,3.4,36,0.00,OVC,,0.00,0.0,WeatherDisplay:10.37,2013-01-22 23:01:00,
2013-01-22 18:06:00,59.6,33.3,30.23,NE,44,2.3,2.3,37,0.00,OVC,,0.00,0.0,WeatherDisplay:10.37,2013-01-22 23:06:00,
2013-01-22 18:13:00,59.3,33.7,30.23,NE,44,3.4,3.4,38,0.00,OVC,,0.00,0.0,WeatherDisplay:10.37,2013-01-22 23:13:00,
2013-01-22 18:19:00,59.1,33.5,30.23,NE,44,3.4,3.4,38,0.00,OVC,,0.00,0.0,WeatherDisplay:10.37,2013-01-22 23:19:00,
2013-01-22 18:28:00,59.1,33.5,30.23,NE,49,3.4,3.4,38,0.00,OVC,,0.00,0.0,WeatherDisplay:10.37,2013-01-22 23:28:00,
2013-01-22 18:35:00,59.0,33.4,30.23,NE,44,3.4,3.4,38,0.00,CLR,,0.00,0.0,WeatherDisplay:10.37,2013-01-22 23:35:00,
2013-01-22 18:42:00,58.7,33.8,30.23,NE,40,4.6,4.6,39,0.00,CLR,,0.00,0.0,WeatherDisplay:10.37,2013-01-22 23:42:00,
2013-01-22 18:49:00,58.6,33.7,30.23,NE,48,5.8,5.8,39,0.00,CLR,,0.00,0.0,WeatherDisplay:10.37,2013-01-22 23:49:00,
2013-01-22 18:56:00,58.3,34.1,30.23,NE,41,3.4,3.4,40,0.00,CLR,,0.00,0.0,WeatherDisplay:10.37,2013-01-22 23:56:00,
2013-01-22 19:00:00,57.9,34.9,30.24,NE,41,1.1,1.1,42,0.00,CLR,,0.00,0.0,WeatherDisplay:10.37,2013-01-23 00:00:00,
2013-01-22 19:01:00,58.0,34.4,30.24,NE,41,3.4,3.4,41,0.00,CLR,,0.00,0.0,WeatherDisplay:10.37,2013-01-23 00:01:00,
2013-01-22 19:06:00,58.0,35.0,30.24,NE,41,3.4,3.4,42,0.00,CLR,,0.00,0.0,WeatherDisplay:10.37,2013-01-23 00:06:00,
2013-01-22 19:28:00,57.3,35.6,30.24,NE,41,0.0,0.0,44,0.00,CLR,,0.00,0.0,WeatherDisplay:10.37,2013-01-23 00:28:00,
2013-01-22 19:52:00,56.8,36.8,30.24,NE,41,1.1,0.0,47,0.00,CLR,,0.00,0.0,WeatherDisplay:10.37,2013-01-23 00:52:00,
2013-01-22 19:57:00,56.4,36.9,30.25,NE,41,0.0,0.0,48,0.00,CLR,,0.00,0.0,WeatherDisplay:10.37,2013-01-23 00:57:00,
2013-01-22 20:00:00,56.0,37.1,30.25,NE,41,1.1,1.1,49,0.00,CLR,,0.00,0.0,WeatherDisplay:10.37,2013-01-23 01:00:00,
2013-01-22 20:02:00,55.9,37.0,30.25,NE,41,0.0,0.1,49,0.00,CLR,,0.00,0.0,WeatherDisplay:10.37,2013-01-23 01:02:00,
2013-01-22 20:07:00,56.0,37.1,30.25,NE,41,1.1,1.1,49,0.00,CLR,,0.00,0.0,WeatherDisplay:10.37,2013-01-23 01:07:00,
2013-01-22 20:29:00,55.4,37.6,30.25,NE,41,0.0,0.0,51,0.00,CLR,,0.00,0.0,WeatherDisplay:10.37,2013-01-23 01:29:00,
2013-01-22 20:42:00,55.1,37.8,30.26,NE,41,0.0,0.0,52,0.00,CLR,,0.00,0.0,WeatherDisplay:10.37,2013-01-23 01:42:00,
2013-01-22 20:55:00,54.4,38.1,30.26,NE,41,0.0,0.0,54,0.00,CLR,,0.00,0.0,WeatherDisplay:10.37,2013-01-23 01:55:00,
2013-01-22 21:00:00,54.4,38.1,30.26,NE,41,0.0,0.0,54,0.00,CLR,,0.00,0.0,WeatherDisplay:10.37,2013-01-23 02:00:00,
2013-01-22 21:05:00,54.2,38.4,30.27,NE,41,1.0,0.0,55,0.00,CLR,,0.00,0.0,WeatherDisplay:10.37,2013-01-23 02:05:00,
2013-01-22 21:46:00,52.0,39.4,30.27,NE,41,0.0,0.0,62,0.00,CLR,,0.00,0.0,WeatherDisplay:10.37,2013-01-23 02:46:00,
2013-01-22 21:56:00,51.8,39.6,30.27,NE,41,1.1,0.0,63,0.00,CLR,,0.00,0.0,WeatherDisplay:10.37,2013-01-23 02:56:00,
2013-01-22 22:00:00,51.4,40.0,30.26,NE,41,1.1,0.0,65,0.00,CLR,,0.00,0.0,WeatherDisplay:10.37,2013-01-23 03:00:00,
2013-01-22 22:01:00,51.6,39.8,30.27,NE,41,1.1,1.1,64,0.00,CLR,,0.00,0.0,WeatherDisplay:10.37,2013-01-23 03:01:00,
2013-01-22 22:06:00,51.7,39.9,30.27,NE,41,0.0,0.0,64,0.00,CLR,,0.00,0.0,WeatherDisplay:10.37,2013-01-23 03:06:00,
2013-01-22 22:19:00,51.5,40.1,30.26,NE,41,1.1,1.1,65,0.00,CLR,,0.00,0.0,WeatherDisplay:10.37,2013-01-23 03:19:00,
2013-01-22 22:29:00,51.1,39.7,30.27,NE,41,0.0,0.0,65,0.00,CLR,,0.00,0.0,WeatherDisplay:10.37,2013-01-23 03:29:00,
2013-01-22 22:55:00,50.6,40.4,30.28,NE,41,0.0,0.0,68,0.00,CLR,,0.00,0.0,WeatherDisplay:10.37,2013-01-23 03:55:00,
2013-01-22 23:00:00,50.4,40.2,30.27,NE,41,0.0,0.0,68,0.00,CLR,,0.00,0.0,WeatherDisplay:10.37,2013-01-23 04:00:00,
2013-01-22 23:05:00,50.2,40.4,30.28,NE,41,1.1,1.1,69,0.00,CLR,,0.00,0.0,WeatherDisplay:10.37,2013-01-23 04:05:00,
2013-01-22 23:13:00,50.1,41.1,30.28,NE,41,0.0,0.0,71,0.00,CLR,,0.00,0.0,WeatherDisplay:10.37,2013-01-23 04:13:00,
2013-01-22 23:24:00,49.8,40.8,30.28,NE,41,1.1,1.1,71,0.00,CLR,,0.00,0.0,WeatherDisplay:10.37,2013-01-23 04:24:00,
2013-01-22 23:56:00,50.0,41.3,30.27,NE,41,1.1,0.0,72,0.00,CLR,,0.00,0.0,WeatherDisplay:10.37,2013-01-23 04:56:00,